This is the latest recevied weather packets stored in our database for station/object SR4DIG-13. If no packets are shown the sender has not sent any weather packets the latest 10 day(s).
| Time | Temp. | Humidity | Pressure | Rain* | Wind** | Luminosity | Snow |
|---|---|---|---|---|---|---|---|
| 1787997306 | 22.78° C | 50% | 1011.7 hPa | 0 mm | - | - | - |
| 1787997005 | 23.33° C | 49% | 1011.7 hPa | 0 mm | - | - | - |
| 1787996704 | 23.33° C | 50% | 1011.7 hPa | 0 mm | - | - | - |
| 1787996403 | 23.33° C | 49% | 1011.5 hPa | 0 mm | - | - | - |
| 1787996102 | 23.89° C | 49% | 1011.6 hPa | 0 mm | - | - | - |
| 1787995802 | 23.89° C | 49% | 1011.7 hPa | 0 mm | - | - | - |
| 1787995501 | 23.89° C | 49% | 1011.7 hPa | 0 mm | - | - | - |
| 1787995200 | 23.89° C | 50% | 1011.7 hPa | 0 mm | - | - | - |
| 1787994899 | 23.33° C | 52% | 1011.8 hPa | 0 mm | - | - | - |
| 1787994598 | 22.78° C | 52% | 1011.8 hPa | 0 mm | - | - | - |
| 1787994306 | 22.78° C | 52% | 1011.5 hPa | 0 mm | - | - | - |
| 1787993996 | 22.78° C | 52% | 1011.7 hPa | 0 mm | - | - | - |
| 1787993695 | 22.78° C | 54% | 1011.8 hPa | 0 mm | - | - | - |
| 1787993394 | 21.67° C | 56% | 1011.8 hPa | 0 mm | - | - | - |
| 1787993093 | 20.56° C | 58% | 1011.8 hPa | 0 mm | - | - | - |
| 1787992558 | 20.56° C | 58% | 1011.9 hPa | 0 mm | - | - | - |
| 1787992258 | 20.56° C | 58% | 1011.9 hPa | 0 mm | - | - | - |
| 1787991957 | 20° C | 59% | 1011.9 hPa | 0 mm | - | - | - |
| 1787991656 | 20° C | 59% | 1011.9 hPa | 0 mm | - | - | - |
| 1787991355 | 20° C | 60% | 1011.9 hPa | 0 mm | - | - | - |
| 1787991054 | 19.44° C | 60% | 1012 hPa | 0 mm | - | - | - |
| 1787990753 | 19.44° C | 60% | 1012 hPa | 0 mm | - | - | - |
| 1787990452 | 19.44° C | 62% | 1011.8 hPa | 0 mm | - | - | - |
| 1787990151 | 18.89° C | 62% | 1012 hPa | 0 mm | - | - | - |
| 1787989549 | 18.89° C | 62% | 1012.1 hPa | 0 mm | - | - | - |
* Rain latest hour (hover to see other rain measurements)
** Current wind speed in m/s (hover to see current wind gust speed)